• In Uzbekistan
  • List of Countries
  • For 7 days
  • Water Temperature
  • Satellite Maps
  • Weather Map
  • Weather Widgets
  • user-avatar
    Login

    Hourly Weather Canberra

    Today, 29 March, Wednesday

    Time Temperature Precipitation Wind Pressure Humidity
    00:00 +12°C° 0 mm 1 mps 706 mmHg 86%
    01:00 +11°C° 0 mm 0 mps 706 mmHg 87%
    02:00 +11°C° 0 mm 1 mps 706 mmHg 85%
    03:00 +11°C° 0 mm 1 mps 705 mmHg 83%
    04:00 +10°C° 0 mm 1 mps 705 mmHg 87%
    05:00 +11°C° 0 mm 1 mps 705 mmHg 80%
    06:00 +11°C° 0 mm 1 mps 705 mmHg 73%
    07:00 +12°C° 0 mm 1 mps 706 mmHg 65%
    08:00 +16°C° 0 mm 1 mps 706 mmHg 52%
    09:00 +20°C° 0 mm 2 mps 706 mmHg 38%
    10:00 +25°C° 0 mm 3 mps 707 mmHg 25%
    11:00 +26°C° 0 mm 3 mps 706 mmHg 25%
    12:00 +28°C° 0 mm 4 mps 706 mmHg 24%
    13:00 +30°C° 0 mm 5 mps 706 mmHg 24%
    14:00 +29°C° 0 mm 5 mps 705 mmHg 25%
    15:00 +29°C° 0 mm 4 mps 705 mmHg 27%
    16:00 +29°C° 0 mm 4 mps 704 mmHg 28%
    17:00 +25°C° 0 mm 3 mps 704 mmHg 36%
    18:00 +21°C° 0 mm 2 mps 703 mmHg 44%
    19:00 +19°C° 0 mm 1 mps 703 mmHg 51%
    20:00 +18°C° 0 mm 1 mps 703 mmHg 52%
    21:00 +18°C° 0 mm 1 mps 703 mmHg 53%
    22:00 +16°C° 0 mm 1 mps 703 mmHg 55%
    23:00 +16°C° 0 mm 1 mps 703 mmHg 59%

    Tomorrow, 30 March, Thursday

    Time Temperature Precipitation Wind Pressure Humidity
    00:00 +15°C° 0 mm 1 mps 703 mmHg 64%
    01:00 +15°C° 0 mm 1 mps 702 mmHg 69%
    02:00 +15°C° 0 mm 1 mps 702 mmHg 67%
    03:00 +15°C° 0 mm 1 mps 702 mmHg 65%
    04:00 +14°C° 0 mm 1 mps 702 mmHg 63%
    05:00 +15°C° 0 mm 1 mps 703 mmHg 62%
    06:00 +15°C° 0 mm 1 mps 704 mmHg 62%
    07:00 +15°C° 0 mm 1 mps 704 mmHg 61%
    08:00 +16°C° 0 mm 1 mps 705 mmHg 59%
    09:00 +18°C° 0 mm 2 mps 706 mmHg 58%
    10:00 +19°C° 0 mm 2 mps 706 mmHg 56%
    11:00 +19°C° 0 mm 2 mps 706 mmHg 58%
    12:00 +19°C° 0 mm 2 mps 706 mmHg 60%
    13:00 +19°C° 0 mm 3 mps 706 mmHg 62%
    14:00 +18°C° 0.4 mm 3 mps 706 mmHg 68%
    15:00 +16°C° 0.4 mm 3 mps 706 mmHg 73%
    16:00 +14°C° 0.4 mm 3 mps 706 mmHg 79%
    17:00 +13°C° 0.2 mm 3 mps 706 mmHg 81%
    18:00 +12°C° 0.2 mm 3 mps 707 mmHg 83%
    19:00 +10°C° 0.2 mm 3 mps 707 mmHg 85%
    20:00 +10°C° 0 mm 3 mps 708 mmHg 83%
    21:00 +10°C° 0 mm 3 mps 708 mmHg 80%
    22:00 +9°C° 0 mm 3 mps 709 mmHg 78%
    23:00 +9°C° 0 mm 3 mps 709 mmHg 77%

    Day after tomorrow, 31 March, Friday

    Time Temperature Precipitation Wind Pressure Humidity
    00:00 +9°C° 0 mm 3 mps 709 mmHg 77%
    01:00 +8°C° 0 mm 3 mps 709 mmHg 77%
    02:00 +8°C° 0 mm 3 mps 709 mmHg 77%
    03:00 +7°C° 0 mm 2 mps 709 mmHg 78%
    04:00 +6°C° 0 mm 2 mps 709 mmHg 78%
    05:00 +7°C° 0 mm 2 mps 709 mmHg 78%
    06:00 +7°C° 0 mm 2 mps 709 mmHg 78%
    07:00 +7°C° 0 mm 2 mps 710 mmHg 77%
    08:00 +9°C° 0 mm 2 mps 710 mmHg 67%
    09:00 +13°C° 0 mm 2 mps 711 mmHg 56%
    10:00 +16°C° 0 mm 2 mps 711 mmHg 46%
    11:00 +18°C° 0 mm 2 mps 711 mmHg 41%
    12:00 +19°C° 0 mm 2 mps 711 mmHg 36%
    13:00 +22°C° 0 mm 1 mps 711 mmHg 32%
    14:00 +22°C° 0 mm 1 mps 710 mmHg 33%
    15:00 +21°C° 0 mm 2 mps 710 mmHg 33%
    16:00 +21°C° 0 mm 2 mps 710 mmHg 34%
    17:00 +19°C° 0 mm 1 mps 710 mmHg 49%
    18:00 +14°C° 0 mm 1 mps 710 mmHg 63%
    19:00 +11°C° 0 mm 1 mps 710 mmHg 77%
    20:00 +11°C° 0 mm 1 mps 710 mmHg 82%
    21:00 +10°C° 0 mm 1 mps 710 mmHg 87%
    22:00 +9°C° 0 mm 1 mps 710 mmHg 92%
    23:00 +9°C° 0 mm 1 mps 710 mmHg 94%

    1 April, Saturday

    Time Temperature Precipitation Wind Pressure Humidity
    00:00 +7°C° 0 mm 0 mps 710 mmHg 96%
    01:00 +7°C° 0 mm 0 mps 709 mmHg 98%
    02:00 +6°C° 0 mm 0 mps 709 mmHg 98%
    03:00 +6°C° 0 mm 0 mps 709 mmHg 98%
    04:00 +6°C° 0 mm 0 mps 709 mmHg 98%
    05:00 +8°C° 0 mm 1 mps 709 mmHg 97%
    06:00 +8°C° 0 mm 1 mps 709 mmHg 96%
    07:00 +9°C° 0 mm 1 mps 710 mmHg 95%
    08:00 +12°C° 0 mm 1 mps 710 mmHg 78%
    09:00 +15°C° 0 mm 2 mps 711 mmHg 60%
    10:00 +18°C° 0 mm 2 mps 711 mmHg 43%
    11:00 +19°C° 0 mm 2 mps 711 mmHg 38%
    12:00 +21°C° 0 mm 2 mps 711 mmHg 33%
    13:00 +22°C° 0 mm 3 mps 711 mmHg 28%
    14:00 +22°C° 0 mm 3 mps 711 mmHg 28%
    15:00 +22°C° 0 mm 3 mps 710 mmHg 29%
    16:00 +23°C° 0 mm 2 mps 710 mmHg 30%
    17:00 +19°C° 0 mm 2 mps 711 mmHg 43%
    18:00 +16°C° 0 mm 2 mps 711 mmHg 56%
    19:00 +13°C° 0 mm 2 mps 711 mmHg 69%
    20:00 +12°C° 0 mm 2 mps 712 mmHg 76%
    21:00 +12°C° 0 mm 2 mps 712 mmHg 84%
    22:00 +11°C° 0 mm 1 mps 713 mmHg 92%
    23:00 +11°C° 0 mm 1 mps 713 mmHg 92%

    2 April, Sunday

    Time Temperature Precipitation Wind Pressure Humidity
    00:00 +10°C° 0 mm 2 mps 713 mmHg 92%
    01:00 +10°C° 0 mm 2 mps 713 mmHg 93%
    02:00 +10°C° 0 mm 2 mps 714 mmHg 91%
    03:00 +10°C° 0 mm 2 mps 714 mmHg 89%
    04:00 +10°C° 0 mm 2 mps 714 mmHg 87%
    05:00 +10°C° 0 mm 2 mps 715 mmHg 86%
    06:00 +9°C° 0 mm 2 mps 715 mmHg 85%
    07:00 +9°C° 0 mm 2 mps 716 mmHg 83%
    08:00 +10°C° 0 mm 2 mps 716 mmHg 75%
    09:00 +13°C° 0 mm 2 mps 716 mmHg 67%
    10:00 +14°C° 0 mm 2 mps 717 mmHg 59%
    11:00 +15°C° 0 mm 2 mps 717 mmHg 56%
    12:00 +16°C° 0 mm 2 mps 717 mmHg 52%
    13:00 +17°C° 0 mm 2 mps 716 mmHg 48%
    14:00 +17°C° 0 mm 2 mps 716 mmHg 49%
    15:00 +17°C° 0 mm 2 mps 716 mmHg 50%
    16:00 +17°C° 0 mm 2 mps 716 mmHg 50%
    17:00 +16°C° 0 mm 2 mps 717 mmHg 57%
    18:00 +14°C° 0 mm 2 mps 717 mmHg 64%
    19:00 +12°C° 0 mm 3 mps 718 mmHg 71%
    20:00 +11°C° 0 mm 3 mps 718 mmHg 76%
    21:00 +10°C° 0 mm 2 mps 718 mmHg 82%
    22:00 +10°C° 0 mm 2 mps 718 mmHg 87%
    23:00 +10°C° 0 mm 2 mps 718 mmHg 87%

    3 April, Monday

    Time Temperature Precipitation Wind Pressure Humidity
    00:00 +9°C° 0 mm 2 mps 718 mmHg 88%
    01:00 +9°C° 0 mm 2 mps 718 mmHg 89%
    02:00 +9°C° 0 mm 2 mps 718 mmHg 87%
    03:00 +9°C° 0 mm 2 mps 718 mmHg 86%
    04:00 +9°C° 0 mm 2 mps 718 mmHg 85%
    05:00 +9°C° 0 mm 2 mps 719 mmHg 85%
    06:00 +9°C° 0 mm 2 mps 719 mmHg 84%
    07:00 +9°C° 0 mm 2 mps 720 mmHg 83%
    08:00 +12°C° 0 mm 2 mps 720 mmHg 74%
    09:00 +14°C° 0 mm 2 mps 720 mmHg 64%
    10:00 +16°C° 0 mm 2 mps 720 mmHg 54%
    11:00 +17°C° 0 mm 2 mps 720 mmHg 51%
    12:00 +18°C° 0 mm 2 mps 720 mmHg 47%
    13:00 +19°C° 0 mm 2 mps 719 mmHg 43%
    14:00 +19°C° 0.1 mm 2 mps 719 mmHg 46%
    15:00 +18°C° 0.1 mm 3 mps 719 mmHg 49%
    16:00 +18°C° 0.1 mm 3 mps 718 mmHg 53%
    17:00 +16°C° 0 mm 3 mps 718 mmHg 63%
    18:00 +14°C° 0 mm 2 mps 719 mmHg 73%
    19:00 +12°C° 0 mm 2 mps 719 mmHg 83%
    20:00 +10°C° 0 mm 2 mps 719 mmHg 87%
    21:00 +9°C° 0 mm 2 mps 719 mmHg 91%
    22:00 +9°C° 0 mm 2 mps 719 mmHg 95%
    23:00 +8°C° 0 mm 2 mps 719 mmHg 95%
    Show more